This is the latest recevied weather packets stored in our database for station/object KM5R. If no packets are shown the sender has not sent any weather packets the latest 10 day(s).
| Time | Temp. | Humidity | Pressure | Rain* | Wind** | Luminosity | Snow |
|---|---|---|---|---|---|---|---|
| 1777818079 | 18.89° C | 57% | 1024.4 hPa | 0 mm | - | 300 W/m² | - |
| 1777817775 | 18.89° C | 58% | 1024.4 hPa | 0 mm | - | 284 W/m² | - |
| 1777817473 | 18.33° C | 58% | 1024.3 hPa | 0 mm | - | 263 W/m² | - |
| 1777817169 | 18.33° C | 58% | 1024.3 hPa | 0 mm | - | 260 W/m² | - |
| 1777816867 | 18.33° C | 57% | 1024.3 hPa | 0 mm | - | 240 W/m² | - |
| 1777816564 | 18.33° C | 57% | 1024.2 hPa | 0 mm | - | 233 W/m² | - |
| 1777816260 | 17.78° C | 58% | 1024 hPa | 0 mm | - | 219 W/m² | - |
| 1777815958 | 17.78° C | 57% | 1024 hPa | 0 mm | - | 205 W/m² | - |
| 1777815655 | 17.78° C | 58% | 1024.3 hPa | 0 mm | - | 194 W/m² | - |
| 1777815352 | 17.78° C | 58% | 1024.1 hPa | 0 mm | - | 180 W/m² | - |
| 1777815049 | 17.22° C | 59% | 1024.2 hPa | 0 mm | - | 169 W/m² | - |
| 1777814745 | 17.22° C | 60% | 1024.2 hPa | 0 mm | - | 156 W/m² | - |
| 1777814443 | 16.67° C | 61% | 1024.1 hPa | 0 mm | - | 142 W/m² | - |
| 1777814140 | 16.67° C | 61% | 1024 hPa | 0 mm | - | 133 W/m² | - |
| 1777813837 | 16.67° C | 62% | 1024.2 hPa | 0 mm | - | 119 W/m² | - |
| 1777813534 | 16.11° C | 63% | 1024.1 hPa | 0 mm | - | 105 W/m² | - |
| 1777813232 | 15.56° C | 64% | 1024.1 hPa | 0 mm | - | 96 W/m² | - |
| 1777812929 | 15.56° C | 64% | 1024.1 hPa | 0 mm | - | 88 W/m² | - |
| 1777812626 | 15° C | 65% | 1023.9 hPa | 0 mm | - | 75 W/m² | - |
| 1777812322 | 15° C | 66% | 1024 hPa | 0 mm | - | 68 W/m² | - |
| 1777812020 | 14.44° C | 67% | 1023.9 hPa | 0 mm | - | 56 W/m² | - |
| 1777811720 | 14.44° C | 68% | 1023.8 hPa | 0 mm | - | 47 W/m² | - |
| 1777811415 | 13.89° C | 69% | 1023.7 hPa | 0 mm | - | 42 W/m² | - |
| 1777811112 | 13.89° C | 70% | 1023.8 hPa | 0 mm | - | 32 W/m² | - |
| 1777810809 | 13.89° C | 70% | 1023.4 hPa | 0 mm | - | 25 W/m² | - |
* Rain latest hour (hover to see other rain measurements)
** Current wind speed in m/s (hover to see current wind gust speed)